[TLELIST] Archives

 

Current TLEs <17 APR 2006>

April 17th 2006 PDT

HST 1 20580U 90037B 06106.28528115 .00001010 00000-0 66293-4 0 5896 2 20580 28.4678 93.4069 0004030 239.9590 120.0597 15.00007887675791 ISS 1 25544U 98067A 06107.29426041 .00020314 00000-0 13456-3 0 7497 2 25544 51.6397 140.9169 0009341 119.9909 343.3425 15.75464177423569 CHANDRA 1 25867U 99040B 06106.91666667 .00000000 00000-0 00000+0 0 9157 2 25867 59.1796 97.8073 5788721 292.4075 356.0526 0.37797485 1219 These 2-Line Elements (TLEs) ...Continue Reading

Current TLEs <30 MAR 2006>

March 30th 2006 PDT

HST 1 20580U 90037B 06088.65326496 .00000507 00000-0 26798-4 0 5766 2 20580 28.4664 208.3459 0003542 65.5931 294.5026 14.99990689673144 ISS 1 25544U 98067A 06089.45535476 .00012719 00000-0 88621-4 0 6314 2 25544 51.6426 232.6626 0009134 61.1837 342.5990 15.74741255420757 CHANDRA 1 25867U 99040B 06088.41666667 .00000000 00000-0 00000+0 0 9061 2 25867 58.9972 98.3234 5789426 292.5571 357.3644 0.37810619 1212 These 2-Line Elements (TLEs) ...Continue Reading

Current TLEs <28 MAR 2006>

March 28th 2006 PDT

HST 1 20580U 90037B 06085.72566234 .00000566 00000-0 31463-4 0 5745 2 20580 28.4663 227.4294 0003150 33.6988 326.3790 14.99988823672705 ISS 1 25544U 98067A 06087.37041709 .00012455 00000-0 87083-4 0 6176 2 25544 51.6426 243.3811 0009136 53.3007 43.0592 15.74684628420421 CHANDRA 1 25867U 99040B 06085.79166667 .00000000 00000-0 00000+0 0 9053 2 25867 58.9740 98.4427 5781007 292.5074 0.0857 0.37799320 1218 These 2-Line Elements (TLEs) ...Continue Reading

Current TLEs <26 MAR 2006>

March 26th 2006 PDT

HST 1 20580U 90037B 06084.52800678 .00000447 00000-0 22098-4 0 5736 2 20580 28.4664 235.2386 0003174 20.7604 339.3119 14.99987564672523 ISS 1 25544U 98067A 06085.33476119 .00011909 00000-0 83668-4 0 6052 2 25544 51.6427 253.8438 0008937 46.5658 22.3459 15.74629864420105 CHANDRA 1 25867U 99040B 06083.12500000 .00000000 00000-0 00000+0 0 9040 2 25867 58.9734 98.4923 5770886 292.5590 357.0461 0.37788666 1215 These 2-Line Elements (TLEs) ...Continue Reading

Current TLEs <21 MAR 2006>

March 21st 2006 PDT

HST 1 20580U 90037B 06080.66888705 .00000458 00000-0 22958-4 0 5708 2 20580 28.4680 260.3983 0003353 334.4485 25.5938 14.99984556671940 ISS 1 25544U 98067A 06081.03127181 .00014237 00000-0 99602-4 0 5766 2 25544 51.6434 275.9608 0008874 32.1740 106.0687 15.74522625419423 CHANDRA 1 25867U 99040B 06080.50000000 .00000000 00000-0 00000+0 0 9033 2 25867 58.9608 98.5103 5767415 292.6588 359.6233 0.37793775 1210 These 2-Line Elements (TLEs) ...Continue Reading

Current TLEs <19 MAR 2006>

March 19th 2006 PDT

HST 1 20580U 90037B 06076.94283208 .00000410 00000-0 19196-4 0 5721 2 20580 28.4686 284.6813 0003432 293.1129 66.9097 14.99982288671384 ISS 1 25544U 98067A 06078.34006944 .00009902 00000-0 70901-4 0 5583 2 25544 51.6440 289.7899 0008793 22.9285 330.9134 15.74434314418999 CHANDRA 1 25867U 99040B 06077.83333333 .00000000 00000-0 00000+0 0 9022 2 25867 58.9286 98.5599 5767723 292.7127 356.5348 0.37803052 1216 These 2-Line Elements (TLEs) ...Continue Reading

Current TLEs <14 MAR 2006>

March 14th 2006 PDT

HST 1 20580U 90037B 06073.88214271 .00000431 00000-0 20830-4 0 5668 2 20580 28.4691 304.6308 0003560 260.9712 99.0474 14.99980848670929 ISS 1 25544U 98067A 06073.99782407 .00012663 00000-0 89755-4 0 5309 2 25544 51.6454 312.0969 0008664 7.8594 198.4344 15.74350036418318 CHANDRA 1 25867U 99040B 06072.54166667 .00000000 00000-0 00000+0 0 9007 2 25867 58.8972 98.7474 5760870 292.7153 356.0939 0.37799025 1211 These 2-Line Elements (TLEs) ...Continue Reading

Current TLEs <02 MAR 2006>

March 2nd 2006 PDT

HST 1 20580U 90037B 06061.30668183 .00000489 00000-0 25405-4 0 5573 2 20580 28.4688 26.5976 0003899 132.7492 227.3428 14.99973985669031 ISS 1 25544U 98067A 06061.84366882 .00014428 00000-0 10330-3 0 4532 2 25544 51.6439 14.5154 0008120 319.2058 83.0555 15.73974503416404 CHANDRA 1 25867U 99040B 06062.00000000 .00000000 00000-0 00000+0 0 8969 2 25867 58.8515 98.9652 5754538 292.9203 0.9190 0.37807526 1216 Decay date for Floating Pote ...Continue Reading

Current TLEs <28 FEB 2006>

February 28th 2006 PDT

HST 1 20580U 90037B 06059.17749673 .00000405 00000-0 18781-4 0 5554 2 20580 28.4685 40.4760 0003664 112.2948 247.8023 14.99972036668711 ISS 1 25544U 98067A 06059.38423057 .00013422 00000-0 96726-4 0 4375 2 25544 51.6439 27.1446 0008104 309.5375 187.7179 15.73898171416011 CHANDRA 1 25867U 99040B 06059.33333333 .00000000 00000-0 00000+0 0 8958 2 25867 58.8276 99.0901 5747411 292.8676 357.9718 0.37802577 1216 Decay date for Floating Pote ...Continue Reading

Current TLEs <25 FEB 2006>

February 25th 2006 PDT

HST 1 20580U 90037B 06056.18332486 .00000489 00000-0 25358-4 0 5530 2 20580 28.4683 59.9887 0003720 78.8035 281.2971 14.99970731668265 ISS 1 25544U 98067A 06057.02296567 .00012186 00000-0 88492-4 0 4229 2 25544 51.6430 39.2672 0008290 300.3599 129.1493 15.73829329415646 CHANDRA 1 25867U 99040B 06056.66666667 .00000000 00000-0 00000+0 0 8949 2 25867 58.8310 99.1547 5734852 292.9077 354.9586 0.37786503 1213 FLOATING POTENTIAL PROBE 1 28 ...Continue Reading
  • This mailing list is a public mailing list - anyone may join or leave, at any time.
  • This mailing list is announce-only.

International Space Station (ISS) / Hubble Space Telescope (HST) / Chandra X-Ray Observatory Orbital Data via EMAIL

Privacy Policy:

Private list